Torna al catalogo

THOR ABLESTAR DEB

AttivoLEO
NORAD 48820·DEBRIS·🇺🇸 United States

Lanciato Jun 29, 1961 da Cape Canaveral Space Force Station

Loading…

Prossimi Passaggi (prossime 24 ore)

TLE

AggiornatoSource: Space-Track

Epoca: Sep 14, 2026, 12:41 UTC

1 48820U 61015MY  26257.52873550  .00000326  00000-0  43905-3 0  9997
2 48820  65.8477  83.6187 0126491 119.1739 242.2046 13.69549313640798

Traccia THOR ABLESTAR DEB in tempo reale con AllMySat

Download on the App Store